DW3528 Weather Reports


time (UTC)temp
C
wind
direction
speed
KPH
gust
KPH
rain 1hr
cm
rain 24hr
cm
rain mn
cm
humidity
%
barometer
mb
20260831054440 24 84 1.6 20.9 0.00 0.00 0.00 46 1027.3
20260831053941 24 84 3.2 20.9 0.00 0.00 0.00 46 1027.2
20260831053440 24 87 3.2 17.7 0.00 0.00 0.00 45 1027.3
20260831052935 24 87 1.6 14.5 0.00 0.00 0.00 44 1027.3
20260831052429 24 87 0.0 11.3 0.00 0.00 0.00 44 1027.3
20260831051923 24 86 3.2 24.1 0.00 0.00 0.00 44 1027.3
20260831051423 24 87 6.4 27.4 0.00 0.00 0.00 44 1027.3
20260831050923 24 87 3.2 27.4 0.00 0.00 0.00 44 1027.3
20260831050652 24 89 0.0 17.7 0.00 0.00 0.00 44 1027.3
20260831045923 24 89 0.0 11.3 0.00 0.00 0.00 44 1027.4
20260831045422 24 89 0.0 14.5 0.00 0.00 0.00 44 1027.4
20260831044922 24 89 1.6 25.7 0.00 0.00 0.00 44 1027.4
20260831044422 24 89 1.6 25.7 0.00 0.00 0.00 44 1027.5
20260831043921 24 89 0.0 9.7 0.00 0.00 0.00 43 1027.6
20260831043419 24 89 0.0 9.7 0.00 0.00 0.00 43 1027.6
20260831042921 24 89 0.0 3.2 0.00 0.00 0.00 43 1027.6
20260831042419 24 89 0.0 11.3 0.00 0.00 0.00 44 1027.6
20260831041919 24 89 0.0 11.3 0.00 0.00 0.00 43 1027.6
20260831041520 24 89 0.0 4.8 0.00 0.00 0.00 44 1027.7
20260831040420 24 89 0.0 9.7 0.00 0.00 0.00 44 1027.7
20260831035920 24 89 1.6 17.7 0.00 0.00 0.00 44 1027.8
20260831035421 24 89 3.2 17.7 0.00 0.00 0.00 43 1027.8
20260831034921 24 89 3.2 20.9 0.00 0.00 0.00 43 1027.9
20260831034639 24 89 3.2 20.9 0.00 0.00 0.00 43 1027.9
20260831033920 24 89 4.8 22.5 0.00 0.00 0.00 43 1028.0
20260831033420 24 89 6.4 25.7 0.00 0.00 0.00 44 1028.0
20260831032919 24 89 4.8 25.7 0.00 0.00 0.00 44 1028.1
20260831032638 24 89 3.2 20.9 0.00 0.00 0.00 45 1028.1
20260831031915 24 89 3.2 20.9 0.00 0.00 0.00 45 1028.2
20260831031415 24 89 1.6 19.3 0.00 0.00 0.00 45 1028.3
20260831030915 23 89 1.6 14.5 0.00 0.00 0.00 45 1028.3
20260831030415 23 89 4.8 22.5 0.00 0.00 0.00 46 1028.4
20260831025917 23 89 1.6 22.5 0.00 0.00 0.00 45 1028.5
20260831025412 23 89 0.0 3.2 0.00 0.00 0.00 46 1028.5
20260831024909 23 89 0.0 3.2 0.00 0.00 0.00 45 1028.7
20260831024410 23 89 1.6 16.1 0.00 0.00 0.00 46 1028.7
20260831023910 23 89 3.2 17.7 0.00 0.00 0.00 45 1028.8
20260831023410 23 89 1.6 19.3 0.00 0.00 0.00 46 1028.9
20260831022911 23 89 0.0 19.3 0.00 0.00 0.00 48 1029.0
20260831022410 23 89 0.0 6.4 0.00 0.00 0.00 48 1029.1
20260831021910 23 89 1.6 12.9 0.00 0.00 0.00 48 1029.2
20260831021406 23 89 0.0 12.9 0.00 0.00 0.00 50 1029.3
20260831020907 23 89 0.0 4.8 0.00 0.00 0.00 50 1029.4
20260831020404 22 89 1.6 6.4 0.00 0.00 0.00 52 1029.4
20260831020122 22 89 1.6 17.7 0.00 0.00 0.00 52 1029.4
20260831015400 22 89 1.6 17.7 0.00 0.00 0.00 52 1029.6
20260831014901 22 89 1.6 16.1 0.00 0.00 0.00 52 1029.8
20260831014401 22 89 1.6 16.1 0.00 0.00 0.00 53 1029.8
20260831014001 22 89 1.6 20.9 0.00 0.00 0.00 54 1029.9
20260831012901 22 89 0.0 3.2 0.00 0.00 0.00 54 1030.1
20260831012403 21 89 0.0 3.2 0.00 0.00 0.00 55 1030.2
20260831011900 21 89 0.0 0.0 0.00 0.00 0.00 55 1030.3
20260831011358 21 89 0.0 0.0 0.00 0.00 0.00 55 1030.4
20260831010900 21 89 0.0 0.0 0.00 0.00 0.00 56 1030.4
20260831010358 21 89 0.0 0.0 0.00 0.00 0.00 57 1030.5
20260831005859 20 89 0.0 0.0 0.00 0.00 0.00 57 1030.6
20260831005357 20 89 0.0 0.0 0.00 0.00 0.00 58 1030.7
20260831004900 20 89 0.0 0.0 0.00 0.00 0.00 59 1030.7
20260831004358 20 89 0.0 0.0 0.00 0.00 0.00 60 1030.8
20260831003901 20 89 0.0 0.0 0.00 0.00 0.00 60 1030.9
20260831003355 20 89 0.0 0.0 0.00 0.00 0.00 61 1030.9
20260831002854 19 89 0.0 0.0 0.00 0.00 0.00 63 1031.0
20260831002621 19 89 0.0 0.0 0.00 0.00 0.00 64 1030.9
20260831001854 18 89 0.0 0.0 0.00 0.00 0.00 64 1031.0
20260831001354 18 89 0.0 0.0 0.00 0.00 0.00 65 1031.0
20260831000854 18 89 0.0 0.0 0.00 0.00 0.00 65 1031.0
20260831000355 18 89 0.0 0.0 0.00 0.00 0.00 66 1030.9
20260830235853 17 89 0.0 0.0 0.00 0.00 0.00 69 1030.9
20260830235842 17 89 0.0 0.0 0.00 0.00 0.00 69 1030.9
20260830235112 17 89 0.0 0.0 0.00 0.00 0.00 70 1030.9
20260830234351 16 89 0.0 0.0 0.00 0.00 0.00 70 1030.9
20260830233851 16 89 0.0 0.0 0.00 0.00 0.00 70 1030.9
20260830233613 16 89 0.0 0.0 0.00 0.00 0.00 70 1030.9
20260830232850 16 89 0.0 0.0 0.00 0.00 0.00 70 1031.0
20260830232351 15 89 0.0 0.0 0.00 0.00 0.00 70 1031.0
20260830231850 15 89 0.0 0.0 0.00 0.00 0.00 71 1031.0
20260830231349 15 89 0.0 0.0 0.00 0.00 0.00 71 1031.1
20260830230850 15 89 0.0 4.8 0.00 0.00 0.00 72 1031.1
20260830230345 15 89 0.0 4.8 0.00 0.00 0.00 74 1031.1
20260830225845 14 89 0.0 0.0 0.00 0.00 0.00 75 1031.0
20260830225346 13 89 0.0 0.0 0.00 0.00 0.00 76 1031.0
20260830225109 13 89 0.0 0.0 0.00 0.00 0.00 78 1031.0
20260830224614 13 89 0.0 0.0 0.00 0.00 0.00 79 1031.0
20260830224104 12 89 0.0 0.0 0.00 0.00 0.00 80 1030.9
20260830223345 12 89 0.0 0.0 0.00 0.00 0.00 80 1031.0
20260830222845 12 89 0.0 0.0 0.00 0.00 0.00 81 1031.0
20260830222347 12 89 0.0 0.0 0.00 0.00 0.00 82 1031.1
20260830221844 11 89 0.0 0.0 0.00 0.00 0.00 83 1031.1
20260830221340 11 89 0.0 0.0 0.00 0.00 0.00 83 1031.1
20260830220831 11 89 0.0 0.0 0.00 0.00 0.00 84 1031.1
20260830220331 11 89 0.0 0.0 0.00 0.00 0.00 85 1031.0
20260830215828 10 89 0.0 0.0 0.00 0.00 0.00 85 1030.9
20260830215329 10 89 0.0 0.0 0.00 0.00 0.00 86 1030.8
20260830214831 10 89 0.0 0.0 0.00 0.00 0.00 87 1030.7
20260830214330 10 89 0.0 0.0 0.00 0.00 0.00 87 1030.7
20260830213830 10 89 0.0 0.0 0.00 0.00 0.00 87 1030.7
20260830213325 9 89 0.0 0.0 0.00 0.00 0.00 87 1030.7
20260830213045 9 89 0.0 0.0 0.00 0.00 0.00 87 1030.8
20260830212321 9 89 0.0 0.0 0.00 0.00 0.00 88 1030.7
20260830211822 9 89 0.0 0.0 0.00 0.00 0.00 87 1030.6
20260830211319 8 89 0.0 0.0 0.00 0.00 0.00 87 1030.7
20260830210820 8 89 0.0 0.0 0.00 0.00 0.00 87 1030.7
20260830210319 8 89 0.0 0.0 0.00 0.00 0.00 87 1030.7
20260830205820 8 89 0.0 0.0 0.00 0.00 0.00 87 1030.6
20260830205321 8 89 0.0 0.0 0.00 0.00 0.00 87 1030.5
20260830204814 8 89 0.0 0.0 0.00 0.00 0.00 87 1030.4
20260830204309 8 89 0.0 0.0 0.00 0.00 0.00 87 1030.3
20260830203802 8 89 0.0 0.0 0.00 0.00 0.00 87 1030.3
20260830203257 8 89 0.0 0.0 0.00 0.00 0.00 87 1030.2
20260830203248 8 89 0.0 0.0 0.00 0.00 0.00 87 1030.2
20260830202244 8 89 0.0 0.0 0.00 0.00 0.00 87 1030.1
20260830201740 8 89 0.0 0.0 0.00 0.00 0.00 86 1030.1
20260830201233 8 89 0.0 0.0 0.00 0.00 0.00 86 1030.0
20260830200726 8 89 0.0 0.0 0.00 0.00 0.00 86 1030.1
20260830200455 8 89 0.0 0.0 0.00 0.00 0.00 86 1030.1
20260830195935 8 89 0.0 0.0 0.00 0.00 0.00 86 1030.0
20260830195211 8 89 0.0 0.0 0.00 0.00 0.00 86 1030.0
20260830194702 8 89 0.0 0.0 0.00 0.00 0.00 86 1030.0
20260830194156 8 89 0.0 0.0 0.00 0.00 0.00 86 1030.0
20260830193650 8 89 0.0 0.0 0.00 0.00 0.00 86 1029.9
20260830193144 8 89 0.0 0.0 0.00 0.00 0.00 85 1029.8
20260830192639 8 89 0.0 0.0 0.00 0.00 0.00 85 1029.7
20260830192131 8 89 0.0 0.0 0.00 0.00 0.00 85 1029.7
20260830191626 9 89 0.0 0.0 0.00 0.00 0.00 85 1029.7
20260830191120 9 89 0.0 0.0 0.00 0.00 0.00 85 1029.7
20260830190831 9 89 0.0 0.0 0.00 0.00 0.00 85 1029.6
20260830190110 9 89 0.0 0.0 0.00 0.00 0.00 85 1029.5
20260830185602 9 89 0.0 0.0 0.00 0.00 0.00 85 1029.5
20260830185056 9 89 0.0 0.0 0.00 0.00 0.00 85 1029.5
20260830184550 9 89 0.0 0.0 0.00 0.00 0.00 85 1029.4
20260830184045 9 89 0.0 0.0 0.00 0.00 0.00 85 1029.4
20260830183811 9 89 0.0 0.0 0.00 0.00 0.00 86 1029.5
20260830183041 9 89 0.0 0.0 0.00 0.00 0.00 86 1029.5
20260830182540 9 89 0.0 0.0 0.00 0.00 0.00 86 1029.5
20260830182042 9 89 0.0 0.0 0.00 0.00 0.00 85 1029.5
20260830181541 9 89 0.0 0.0 0.00 0.00 0.00 86 1029.6
20260830181038 9 89 0.0 0.0 0.00 0.00 0.00 86 1029.6
20260830180802 9 89 0.0 0.0 0.00 0.00 0.00 86 1029.7
20260830180040 9 89 0.0 0.0 0.00 0.00 0.00 86 1029.5
20260830175535 9 89 0.0 0.0 0.00 0.00 0.00 86 1029.6
20260830175034 9 89 0.0 0.0 0.00 0.00 0.00 86 1029.7
20260830174804 9 89 0.0 0.0 0.00 0.00 0.00 86 1029.7
20260830174033 9 89 0.0 0.0 0.00 0.00 0.00 86 1029.8
20260830173530 9 89 0.0 0.0 0.00 0.00 0.00 86 1029.8
20260830173029 9 89 0.0 0.0 0.00 0.00 0.00 86 1029.9
20260830172530 9 89 0.0 0.0 0.00 0.00 0.00 86 1029.8
20260830172251 9 89 0.0 0.0 0.00 0.00 0.00 86 1029.8
20260830171530 9 89 0.0 0.0 0.00 0.00 0.00 86 1029.8
20260830171024 9 89 0.0 0.0 0.00 0.00 0.00 86 1029.8
20260830170526 9 89 0.0 0.0 0.00 0.00 0.00 86 1029.9
20260830170019 9 89 0.0 0.0 0.00 0.00 0.00 86 1029.9
20260830165511 9 89 0.0 0.0 0.00 0.00 0.00 87 1030.0
20260830165005 9 89 0.0 0.0 0.00 0.00 0.00 87 1029.9
20260830164500 9 89 0.0 0.0 0.00 0.00 0.00 87 1030.0
20260830164220 9 89 0.0 0.0 0.00 0.00 0.00 87 1030.2
20260830163450 9 89 0.0 0.0 0.00 0.00 0.00 87 1030.3
20260830162943 9 89 0.0 0.0 0.00 0.00 0.00 87 1030.3
20260830162703 9 89 0.0 0.0 0.00 0.00 0.00 87 1030.3
20260830161929 9 89 0.0 0.0 0.00 0.00 0.00 87 1030.1
20260830161654 9 89 0.0 0.0 0.00 0.00 0.00 87 1030.1
20260830160919 9 89 0.0 0.0 0.00 0.00 0.00 87 1030.2
20260830160412 9 89 0.0 0.0 0.00 0.00 0.00 87 1030.3
20260830155907 9 89 0.0 0.0 0.00 0.00 0.00 86 1030.3
20260830155623 9 89 0.0 0.0 0.00 0.00 0.00 86 1030.3
20260830154906 9 89 0.0 0.0 0.00 0.00 0.00 86 1030.3
20260830154146 9 89 0.0 0.0 0.00 0.00 0.00 86 1030.3
20260830153647 9 89 0.0 0.0 0.00 0.00 0.00 85 1030.4
20260830153146 10 89 0.0 0.0 0.00 0.00 0.00 85 1030.3
20260830152645 10 89 0.0 0.0 0.00 0.00 0.00 85 1030.3
20260830152145 10 89 0.0 0.0 0.00 0.00 0.00 85 1030.3
20260830151907 10 89 0.0 0.0 0.00 0.00 0.00 85 1030.3
20260830151138 10 89 0.0 0.0 0.00 0.00 0.00 84 1030.3
20260830150637 10 89 0.0 0.0 0.00 0.00 0.00 84 1030.3
20260830150619 10 89 0.0 0.0 0.00 0.00 0.00 84 1030.3
20260830145635 10 89 0.0 0.0 0.00 0.00 0.00 84 1030.3
20260830145132 10 89 0.0 0.0 0.00 0.00 0.00 84 1030.4
20260830144631 10 89 0.0 0.0 0.00 0.00 0.00 83 1030.4
20260830144126 10 89 0.0 0.0 0.00 0.00 0.00 83 1030.4
20260830143624 10 89 0.0 0.0 0.00 0.00 0.00 83 1030.4
20260830143126 10 89 0.0 0.0 0.00 0.00 0.00 83 1030.4
20260830142627 10 89 0.0 0.0 0.00 0.00 0.00 83 1030.4
20260830142117 10 89 0.0 0.0 0.00 0.00 0.00 83 1030.4
20260830141612 10 89 0.0 0.0 0.00 0.00 0.00 83 1030.4
20260830141105 10 89 0.0 0.0 0.00 0.00 0.00 83 1030.3
20260830140559 11 89 0.0 0.0 0.00 0.00 0.00 83 1030.3
20260830140318 11 89 0.0 0.0 0.00 0.00 0.00 83 1030.4
20260830135555 11 89 0.0 0.0 0.00 0.00 0.00 83 1030.5
20260830135309 11 89 0.0 0.0 0.00 0.00 0.00 83 1030.5
20260830134535 11 89 0.0 0.0 0.00 0.00 0.00 82 1030.4
20260830134029 11 89 0.0 0.0 0.00 0.00 0.00 82 1030.4
20260830133523 11 89 0.0 0.0 0.00 0.00 0.00 82 1030.4
20260830133017 11 89 0.0 0.0 0.00 0.00 0.00 82 1030.4
20260830132737 11 89 0.0 0.0 0.00 0.00 0.00 81 1030.4
20260830132230 11 89 0.0 0.0 0.00 0.00 0.00 81 1030.5
20260830131459 11 89 0.0 0.0 0.00 0.00 0.00 80 1030.5
20260830130956 11 89 0.0 0.0 0.00 0.00 0.00 80 1030.5
20260830130456 11 89 0.0 0.0 0.00 0.00 0.00 80 1030.5
20260830125956 11 89 0.0 0.0 0.00 0.00 0.00 80 1030.5
20260830125455 12 89 0.0 0.0 0.00 0.00 0.00 80 1030.4
20260830124956 12 89 0.0 0.0 0.00 0.00 0.00 80 1030.5
20260830124454 12 89 0.0 0.0 0.00 0.00 0.00 80 1030.4
20260830123954 12 89 0.0 0.0 0.00 0.00 0.00 80 1030.4
20260830123456 12 89 0.0 0.0 0.00 0.00 0.00 80 1030.4
20260830122951 12 89 0.0 0.0 0.00 0.00 0.00 80 1030.4
20260830122719 12 89 0.0 0.0 0.00 0.00 0.00 79 1030.3
20260830121953 12 89 0.0 0.0 0.00 0.00 0.00 79 1030.2
20260830121449 12 89 0.0 0.0 0.00 0.00 0.00 79 1030.3
20260830120951 12 89 0.0 0.0 0.00 0.00 0.00 78 1030.3
20260830120450 12 89 0.0 0.0 0.00 0.00 0.00 77 1030.4
20260830115951 12 89 0.0 0.0 0.00 0.00 0.00 77 1030.3
20260830115707 12 89 0.0 0.0 0.00 0.00 0.00 77 1030.3
20260830114938 12 89 0.0 0.0 0.00 0.00 0.00 76 1030.3
20260830114432 12 89 0.0 0.0 0.00 0.00 0.00 75 1030.3
20260830113927 13 89 0.0 0.0 0.00 0.00 0.00 75 1030.3
20260830113421 13 89 0.0 0.0 0.00 0.00 0.00 74 1030.3
20260830112916 13 89 0.0 0.0 0.00 0.00 0.00 73 1030.2
20260830112410 13 89 0.0 0.0 0.00 0.00 0.00 72 1030.2
20260830111903 13 89 0.0 0.0 0.00 0.00 0.00 71 1030.1
20260830111359 13 89 0.0 0.0 0.00 0.00 0.00 71 1030.1
20260830110851 13 89 0.0 0.0 0.00 0.00 0.00 71 1030.0
20260830110346 13 89 0.0 0.0 0.00 0.00 0.00 71 1029.9
20260830105840 14 89 0.0 0.0 0.00 0.00 0.00 70 1029.8
20260830105334 14 89 0.0 0.0 0.00 0.00 0.00 70 1029.8
20260830105314 14 89 0.0 0.0 0.00 0.00 0.00 70 1029.8
20260830104321 14 89 0.0 0.0 0.00 0.00 0.00 69 1029.8
20260830103816 14 89 0.0 0.0 0.00 0.00 0.00 69 1029.7
20260830103308 15 89 0.0 0.0 0.00 0.00 0.00 68 1029.8
20260830102802 15 89 0.0 0.0 0.00 0.00 0.00 67 1029.8
20260830102257 15 89 0.0 0.0 0.00 0.00 0.00 67 1029.7
20260830101750 15 89 0.0 0.0 0.00 0.00 0.00 67 1029.7
20260830101246 15 89 0.0 0.0 0.00 0.00 0.00 67 1029.7
20260830100739 15 89 0.0 0.0 0.00 0.00 0.00 67 1029.6
20260830100232 15 89 0.0 0.0 0.00 0.00 0.00 66 1029.5
20260830095726 15 89 0.0 0.0 0.00 0.00 0.00 65 1029.5
20260830095220 15 89 0.0 0.0 0.00 0.00 0.00 64 1029.4
20260830094716 16 89 0.0 0.0 0.00 0.00 0.00 62 1029.4
20260830094208 16 89 0.0 0.0 0.00 0.00 0.00 61 1029.3
20260830093704 16 89 0.0 0.0 0.00 0.00 0.00 60 1029.3
20260830093428 16 89 0.0 0.0 0.00 0.00 0.00 59 1029.3
20260830092650 17 89 0.0 0.0 0.00 0.00 0.00 57 1029.3
20260830092146 17 89 0.0 0.0 0.00 0.00 0.00 57 1029.2
20260830091639 17 89 0.0 0.0 0.00 0.00 0.00 57 1029.2
20260830091406 17 89 0.0 0.0 0.00 0.00 0.00 56 1029.2
20260830090854 17 89 0.0 0.0 0.00 0.00 0.00 56 1029.1
20260830090120 17 89 0.0 0.0 0.00 0.00 0.00 55 1029.1
20260830085617 18 89 0.0 0.0 0.00 0.00 0.00 54 1029.0
20260830085608 18 89 0.0 0.0 0.00 0.00 0.00 54 1028.9
20260830084603 18 89 0.0 0.0 0.00 0.00 0.00 54 1028.9
20260830084056 18 89 0.0 0.0 0.00 0.00 0.00 53 1028.8
20260830083551 18 89 0.0 0.0 0.00 0.00 0.00 53 1028.8
20260830083045 18 89 0.0 0.0 0.00 0.00 0.00 52 1028.8
20260830082805 18 89 0.0 0.0 0.00 0.00 0.00 51 1028.7
20260830082033 18 89 0.0 0.0 0.00 0.00 0.00 50 1028.6
20260830081526 18 89 0.0 0.0 0.00 0.00 0.00 49 1028.5
20260830081020 18 89 0.0 0.0 0.00 0.00 0.00 48 1028.4
20260830080517 19 89 0.0 0.0 0.00 0.00 0.00 48 1028.3
20260830080008 19 89 0.0 0.0 0.00 0.00 0.00 47 1028.3
20260830075503 19 89 0.0 0.0 0.00 0.00 0.00 46 1028.2
20260830075221 20 89 0.0 0.0 0.00 0.00 0.00 46 1028.1
20260830074450 20 89 0.0 0.0 0.00 0.00 0.00 45 1028.2
20260830074204 20 89 0.0 0.0 0.00 0.00 0.00 45 1028.1
20260830073439 20 89 0.0 0.0 0.00 0.00 0.00 44 1028.1
20260830072932 20 89 0.0 0.0 0.00 0.00 0.00 43 1028.1
20260830072427 20 89 0.0 0.0 0.00 0.00 0.00 42 1028.0
20260830071921 21 89 0.0 0.0 0.00 0.00 0.00 43 1028.0
20260830071415 21 89 0.0 0.0 0.00 0.00 0.00 42 1028.0
20260830070909 21 89 0.0 0.0 0.00 0.00 0.00 42 1028.0
20260830070403 21 89 0.0 3.2 0.00 0.00 0.00 41 1028.0
20260830070135 21 89 0.0 3.2 0.00 0.00 0.00 41 1027.9
20260830065350 21 89 0.0 3.2 0.00 0.00 0.00 40 1027.9
20260830064846 21 89 1.6 14.5 0.00 0.00 0.00 39 1027.9
20260830064338 21 89 1.6 17.7 0.00 0.00 0.00 39 1027.9
20260830063832 21 89 1.6 19.3 0.00 0.00 0.00 40 1027.8
20260830063327 21 89 1.6 19.3 0.00 0.00 0.00 40 1027.8
20260830062820 21 89 0.0 14.5 0.00 0.00 0.00 40 1027.8
20260830062316 21 89 1.6 14.5 0.00 0.00 0.00 40 1027.7
20260830062035 22 89 0.0 11.3 0.00 0.00 0.00 39 1027.7
20260830061303 22 89 0.0 11.3 0.00 0.00 0.00 39 1027.8
20260830061018 22 89 0.0 11.3 0.00 0.00 0.00 38 1027.8
20260830060514 22 89 0.0 11.3 0.00 0.00 0.00 38 1027.8
20260830055746 22 89 0.0 11.3 0.00 0.00 0.00 37 1027.9
20260830055239 22 89 0.0 11.3 0.00 0.00 0.00 37 1027.9
20260830054733 22 89 0.0 9.7 0.00 0.00 0.00 38 1027.9